Location: Bremen
(53.0793°N, 8.8017°E)
Time: 21:47:18
(UTC+02:00)

Envisat - Pass Details

Date: 06 March 2024
Orbit: 762 x 764 km, 98.3° (Epoch: 13 April)

Event Time Altitude Azimuth Distance (km) Brightness Sun altitude
Rises 04:50:19 0° 11° (N) 3,244 6.6 -20.0°
Reaches altitude 10° 04:52:43 10° 5° (N) 2,313 5.8 -19.7°
Maximum altitude 04:57:32 44° 295° (WNW) 1,050 3.3 -19.0°
Enters shadow 04:58:52 36° 256° (WSW) 1,198 3.5 -18.8°
